Wind_Speed
5 5 5 5 5 4 4 4 5 5 5 6 6 7 7 7 6 6 7 7 6 6 6 6 7 7 7 7 8 8 8 7 7 7 7 7 7 6 6 6 6 6 6 6
6 5 5 5 5 5 5 5 5 5 5 6 6 7 7 7 7 7 7 7 7 6 6 6 6 6 6 6 6 6 6 6 6 7 7 6 6 6 6 6 6 6 5 5
7 6 6 6 5 5 4 5 6 6 7 7 7 7 6 7 6 7 7 7 7 7 7 7 6 6 5 5 5 5 4 5 5 6 6 6 5 5 5 4 4 4 4 4
7 7 6 6 6 5 5 6 6 6 6 6 6 6 6 6 6 7 7 8 8 7 7 6 6 6 5 5 5 5 5 4 4 5 5 5 5 4 4 4 4 3 3 3
8 7 7 7 6 6 6 6 5 6 6 6 6 6 6 6 7 7 8 8 8 7 6 6 6 6 6 6 6 6 5 5 5 5 5 5 5 4 4 3 3 3 3 3
9 9 8 8 7 7 7 6 6 6 6 6 6 6 6 7 7 8 8 8 7 6 6 6 6 6 6 6 6 6 5 5 5 5 5 5 5 4 4 4 4 4 3 3
10 10 9 8 8 8 8 7 7 7 7 7 7 7 7 8 8 8 7 7 6 6 6 6 6 6 6 6 6 5 5 5 5 5 5 5 4 4 4 4 4 4 4 4
11 11 10 10 9 9 9 8 8 7 7 8 7 7 8 8 8 8 7 6 6 6 6 5 6 5 5 6 6 6 6 5 5 5 5 5 5 5 5 4 4 4 4 4
12 12 11 11 11 11 10 9 9 9 9 8 8 8 8 8 8 8 7 6 5 6 6 6 6 5 6 5 5 5 6 6 5 5 6 6 6 5 5 5 5 4 5 4
13 13 12 12 12 12 11 11 10 10 10 9 9 8 8 8 8 8 7 6 6 6 6 6 5 5 5 5 5 4 5 5 5 5 6 6 6 6 6 6 5 5 5 5
14 14 13 13 12 11 12 12 11 12 11 10 10 9 8 8 8 8 8 7 7 6 6 6 6 5 4 5 5 5 5 6 6 6 6 7 7 7 7 6 5 5 5 5
16 15 15 14 14 13 13 13 13 13 12 12 11 10 10 9 9 9 8 8 7 7 7 7 6 5 5 5 5 5 6 6 6 7 7 7 7 7 7 6 5 5 5 5
17 16 16 16 16 15 15 14 14 14 13 13 12 11 10 10 10 10 9 8 8 8 8 7 6 6 6 6 6 6 6 6 6 6 7 6 6 6 7 6 6 6 6 7
19 19 18 17 18 17 16 16 15 15 14 14 12 11 11 11 11 11 10 9 9 9 8 8 8 7 7 7 7 7 6 6 6 6 6 6 7 7 7 7 7 6 6 7
22 21 20 20 20 19 19 18 17 16 16 15 14 12 12 12 12 11 11 11 10 10 9 9 9 9 8 8 8 7 7 7 6 6 6 7 7 7 8 8 7 7 8 8
24 23 23 22 21 21 21 19 18 17 17 16 15 14 14 14 13 12 12 12 12 11 11 11 10 10 10 9 9 9 8 8 8 7 8 7 7 8 8 9 9 9 8 8
25 25 24 24 23 23 23 20 20 18 18 18 17 16 15 15 14 14 13 13 13 13 13 12 12 11 11 10 10 10 10 9 9 9 8 8 8 8 9 9 9 9 9 9
26 26 26 26 26 26 24 22 21 20 20 20 19 17 16 15 15 15 15 15 14 14 14 14 13 12 12 11 11 11 11 11 10 10 10 9 9 10 9 9 9 9 9 10
26 26 27 27 27 27 25 24 23 22 21 20 20 19 17 16 15 15 16 16 15 15 14 14 14 13 13 12 12 12 12 12 11 11 11 11 11 10 10 10 10 10 10 11
26 26 27 27 28 28 26 25 24 24 23 21 21 20 18 17 17 16 17 17 17 16 16 15 14 14 14 13 13 13 13 13 13 13 12 12 12 12 12 11 12 12 12 12
25 26 27 27 28 28 25 24 24 24 23 22 22 21 20 19 19 18 18 18 18 18 18 17 16 16 15 15 15 15 14 14 14 14 14 14 13 13 14 14 14 13 14 14
26 27 27 28 29 27 25 25 25 25 25 24 24 23 22 22 21 20 20 20 19 19 19 19 18 17 17 17 16 16 16 15 16 16 15 15 15 15 15 16 16 16 16 16
28 29 29 29 29 27 27 26 26 26 26 25 25 25 24 24 23 22 21 21 21 21 21 20 20 19 19 19 18 17 17 16 16 17 17 17 17 17 18 18 18 18 18 18
30 30 30 30 30 29 28 28 28 28 27 26 26 26 25 25 25 25 24 23 23 23 23 22 21 21 20 20 19 19 18 19 19 19 19 19 19 19 19 19 19 20 20 20
30 31 31 31 30 30 29 29 29 29 29 28 27 27 27 27 26 25 25 25 25 25 24 24 23 22 21 21 21 20 20 21 21 21 21 21 21 21 21 21 21 21 22 22
30 31 31 31 30 31 31 31 30 30 30 29 29 29 28 28 28 27 27 27 26 26 26 25 24 24 23 23 22 22 22 22 22 22 22 22 22 23 23 23 22 23 24 23
Wind_Direction
254 256 258 262 261 257 253 271 294 303 316 319 322 324 328 331 328 323 322 319 311 305 290 288 288 284 286 286 284 279 272 269 267 259 256 261 265 266 265 270 273 264 271 273
252 254 253 258 261 258 261 271 291 302 309 314 318 318 319 320 318 316 316 312 312 310 295 290 294 287 287 290 296 287 272 264 258 255 257 262 270 265 266 271 278 265 267 272
256 253 252 259 259 258 266 274 284 298 309 313 316 318 316 318 320 317 315 311 309 309 304 293 287 289 285 291 298 292 280 264 258 253 255 255 259 264 265 265 272 273 266 263
253 252 252 254 257 264 270 279 284 292 302 310 313 314 316 313 314 312 314 317 318 316 309 298 290 285 282 286 295 299 279 264 263 260 256 251 258 268 267 269 278 283 267 251
249 250 253 254 257 265 273 276 279 283 291 299 305 307 313 308 307 310 312 315 316 316 312 304 294 291 287 280 282 289 287 269 265 256 252 261 261 257 257 267 278 281 279 255
248 249 252 254 258 263 267 271 276 281 289 293 300 301 306 305 307 308 310 309 308 308 307 308 299 291 289 284 280 281 278 270 260 256 258 260 259 255 252 256 269 278 275 262
247 248 249 249 253 260 266 271 276 282 286 288 293 298 303 304 304 308 308 305 302 300 303 306 305 299 294 286 279 274 273 267 261 255 254 258 254 254 251 252 267 277 279 269
245 248 249 247 252 260 264 268 270 272 279 286 290 297 303 303 304 307 309 309 305 299 301 306 309 305 303 292 281 275 274 272 260 255 251 247 252 253 253 255 260 269 274 273
244 248 250 250 253 257 260 264 267 270 276 283 289 295 300 303 306 309 307 305 306 305 304 306 308 305 308 302 293 283 274 270 263 265 257 251 252 256 254 255 258 264 270 273
244 247 249 250 253 255 256 259 263 268 275 282 288 291 294 297 302 304 300 299 299 303 305 306 307 302 302 301 295 283 276 275 269 268 262 260 257 261 257 254 255 259 260 264
243 246 248 249 251 255 257 257 261 266 271 275 280 281 285 289 295 297 292 291 294 297 301 298 302 303 303 303 298 286 278 272 268 266 265 263 262 259 258 259 255 253 254 260
244 245 249 251 251 252 253 256 259 263 267 270 273 277 280 280 285 289 287 285 289 293 299 300 296 296 300 300 294 289 280 272 269 266 263 263 261 259 256 255 253 257 252 256
245 247 249 252 253 252 254 256 258 261 263 265 269 272 275 274 278 280 281 281 281 286 293 294 292 289 291 294 293 292 286 278 271 267 263 256 254 257 256 258 256 257 257 259
245 246 248 252 254 255 255 256 257 259 262 264 266 267 269 271 273 276 274 274 277 279 285 289 289 287 287 288 286 285 280 275 270 269 263 253 253 258 262 262 257 260 266 267
245 247 249 251 254 255 255 256 257 259 262 263 264 263 262 266 268 268 268 269 273 275 277 281 283 284 285 286 280 273 273 272 270 265 260 254 254 257 261 263 261 266 271 269
247 249 250 250 252 254 255 255 256 258 260 261 262 261 261 263 261 261 262 263 267 270 273 276 280 281 280 280 276 268 268 268 264 264 258 257 257 260 262 261 262 268 269 270
247 250 251 252 253 254 254 255 256 257 258 259 261 262 261 259 257 258 259 260 263 263 267 272 277 277 277 275 271 266 265 263 260 260 264 263 258 261 263 263 264 265 267 269
248 251 253 254 253 253 254 254 254 255 257 257 259 260 259 256 255 257 259 260 262 263 266 268 272 274 272 272 270 267 264 261 260 259 261 262 264 265 265 264 265 268 268 272
250 252 254 255 255 255 253 253 254 255 256 257 259 259 258 256 254 257 260 262 263 263 265 267 267 270 270 270 268 266 263 260 259 259 261 261 263 264 263 261 265 267 271 274
251 253 254 255 256 257 255 253 253 255 255 256 257 257 256 254 255 256 259 260 261 262 262 262 263 267 269 270 268 265 261 259 258 257 259 260 260 258 258 261 265 270 273 274
252 253 253 255 256 256 255 255 253 253 254 254 256 256 255 254 255 255 256 258 260 261 262 261 262 265 266 268 267 265 261 258 257 256 255 255 257 257 257 261 266 269 273 275
252 253 252 253 255 257 256 256 253 252 252 253 254 254 254 253 253 253 255 256 257 259 261 260 261 263 264 265 265 265 262 259 257 256 255 255 258 261 262 264 265 268 272 275
251 252 252 252 254 255 255 255 254 252 252 253 254 253 252 252 252 253 255 256 256 258 259 259 260 260 262 264 263 263 260 258 257 257 257 258 259 260 263 265 266 270 273 275
251 252 253 253 253 254 255 255 254 252 251 253 254 252 251 252 253 254 255 257 258 258 257 257 258 258 260 262 262 260 258 256 257 258 258 259 260 262 265 266 267 269 271 273
252 252 253 254 254 254 254 254 255 252 250 250 251 252 252 252 253 254 255 257 257 257 255 256 255 255 257 260 261 260 258 258 258 259 258 259 261 263 265 267 269 270 271 272
252 253 253 254 254 254 254 253 253 252 250 249 250 251 252 252 253 254 254 256 257 257 257 256 254 253 254 256 258 258 258 259 259 259 258 259 261 264 266 267 268 270 272 273
Height
5869 5870 5870 5870 5870 5870 5870 5870 5870 5870 5869 5869 5868 5867 5866 5865 5864 5863 5862 5861 5860 5859 5859 5858 5858 5858 5857 5856 5856 5855 5855 5855 5855 5855 5855 5855 5855 5855 5855 5855 5855 5855 5855 5854
5868 5868 5868 5868 5868 5868 5869 5869 5869 5868 5868 5868 5867 5866 5865 5864 5863 5862 5861 5860 5859 5858 5857 5857 5856 5856 5856 5855 5854 5854 5853 5853 5853 5854 5854 5854 5854 5854 5854 5854 5853 5853 5853 5853
5865 5867 5866 5867 5867 5867 5867 5867 5867 5867 5867 5866 5866 5865 5864 5863 5862 5861 5860 5859 5858 5856 5855 5855 5855 5855 5854 5854 5853 5852 5852 5852 5852 5852 5852 5852 5853 5853 5853 5852 5852 5852 5852 5852
5863 5864 5864 5865 5865 5865 5866 5866 5866 5866 5865 5865 5865 5865 5863 5862 5861 5860 5859 5857 5856 5855 5854 5853 5853 5853 5853 5853 5852 5851 5851 5851 5851 5851 5851 5851 5852 5852 5852 5851 5851 5851 5851 5851
5861 5862 5862 5863 5863 5863 5864 5864 5864 5864 5864 5864 5864 5863 5863 5861 5860 5859 5857 5856 5855 5854 5853 5852 5852 5852 5851 5851 5851 5851 5850 5850 5850 5850 5850 5850 5851 5851 5851 5851 5851 5851 5851 5850
5859 5859 5860 5861 5861 5862 5862 5863 5862 5862 5862 5863 5862 5862 5861 5860 5858 5857 5856 5854 5853 5852 5851 5851 5850 5850 5850 5850 5850 5850 5849 5849 5849 5849 5849 5850 5850 5850 5850 5850 5850 5850 5850 5850
5856 5857 5857 5858 5859 5860 5860 5861 5861 5861 5861 5861 5860 5860 5860 5858 5857 5856 5854 5853 5852 5851 5850 5850 5849 5849 5849 5849 5848 5848 5848 5848 5848 5848 5848 5849 5849 5849 5849 5849 5849 5849 5849 5849
5853 5855 5855 5856 5857 5857 5858 5859 5860 5860 5860 5859 5858 5858 5858 5856 5855 5854 5853 5852 5851 5850 5849 5849 5848 5848 5847 5847 5847 5847 5847 5847 5847 5847 5847 5848 5848 5848 5848 5848 5848 5848 5848 5848
5850 5852 5852 5853 5854 5855 5855 5856 5857 5857 5857 5857 5856 5856 5855 5854 5853 5852 5851 5850 5849 5849 5848 5848 5847 5847 5846 5846 5845 5845 5845 5845 5846 5846 5846 5846 5847 5847 5847 5847 5847 5847 5847 5847
5847 5848 5849 5849 5850 5851 5852 5853 5853 5854 5854 5854 5854 5854 5854 5852 5851 5850 5849 5849 5848 5848 5847 5846 5846 5845 5845 5845 5844 5844 5844 5844 5844 5844 5845 5845 5845 5846 5846 5846 5846 5846 5846 5845
5843 5844 5846 5846 5847 5848 5849 5850 5850 5850 5851 5852 5852 5854 5851 5850 5849 5848 5848 5847 5847 5846 5846 5845 5844 5844 5844 5843 5843 5843 5843 5843 5843 5843 5843 5843 5843 5844 5844 5844 5844 5844 5844 5844
5838 5840 5841 5842 5843 5844 5845 5845 5846 5848 5848 5848 5849 5852 5848 5847 5847 5846 5845 5845 5845 5844 5844 5843 5843 5842 5842 5842 5841 5841 5841 5841 5841 5841 5841 5841 5841 5841 5842 5842 5842 5842 5843 5843
5834 5836 5837 5838 5840 5841 5841 5842 5842 5843 5844 5844 5845 5848 5845 5844 5844 5843 5843 5843 5843 5843 5842 5842 5841 5841 5841 5840 5840 5840 5839 5839 5839 5839 5839 5839 5839 5840 5840 5840 5840 5841 5841 5841
5829 5831 5833 5835 5835 5835 5836 5837 5838 5839 5840 5840 5842 5843 5842 5841 5841 5840 5840 5840 5840 5840 5840 5840 5839 5839 5839 5838 5838 5838 5837 5837 5837 5837 5837 5837 5838 5838 5838 5838 5839 5839 5839 5839
5823 5825 5826 5828 5829 5830 5831 5833 5834 5835 5835 5836 5838 5838 5838 5838 5838 5838 5837 5837 5838 5838 5837 5837 5837 5836 5836 5836 5836 5836 5835 5835 5835 5835 5835 5835 5836 5836 5836 5837 5837 5837 5837 5837
5816 5819 5820 5822 5823 5824 5825 5827 5829 5830 5830 5831 5832 5834 5834 5834 5834 5834 5834 5834 5834 5835 5835 5835 5834 5834 5833 5833 5833 5833 5833 5833 5833 5833 5833 5833 5834 5834 5834 5835 5835 5835 5835 5835
5810 5812 5814 5816 5817 5818 5820 5822 5823 5824 5825 5826 5827 5829 5828 5829 5829 5830 5830 5831 5831 5831 5831 5831 5831 5830 5830 5830 5830 5830 5830 5830 5830 5831 5831 5831 5831 5832 5832 5832 5832 5832 5832 5832
5803 5805 5807 5808 5811 5811 5816 5816 5817 5818 5819 5820 5821 5822 5823 5824 5825 5825 5826 5826 5827 5827 5827 5827 5827 5827 5827 5827 5827 5827 5827 5827 5827 5828 5828 5828 5828 5829 5829 5829 5829 5829 5829 5829
5796 5798 5799 5801 5802 5804 5808 5809 5810 5811 5813 5815 5815 5817 5818 5819 5820 5821 5821 5822 5822 5823 5823 5823 5823 5824 5823 5823 5823 5823 5824 5824 5824 5824 5825 5825 5825 5826 5826 5826 5826 5826 5826 5826
5789 5790 5792 5793 5794 5796 5801 5802 5803 5805 5806 5809 5809 5810 5811 5813 5814 5816 5816 5816 5817 5818 5818 5819 5819 5819 5820 5820 5819 5820 5820 5820 5820 5821 5821 5821 5822 5822 5822 5823 5823 5822 5822 5822
5781 5783 5784 5786 5786 5789 5793 5794 5796 5799 5801 5801 5802 5803 5805 5806 5808 5810 5810 5811 5812 5813 5813 5814 5814 5815 5815 5815 5815 5815 5815 5816 5816 5816 5817 5817 5817 5818 5818 5818 5819 5818 5818 5818
5774 5775 5777 5778 5779 5784 5785 5786 5788 5790 5791 5793 5794 5796 5798 5799 5801 5803 5804 5805 5806 5807 5808 5808 5809 5809 5810 5810 5810 5810 5811 5811 5811 5812 5812 5812 5813 5813 5814 5814 5814 5814 5814 5813
5766 5768 5769 5771 5774 5776 5777 5778 5779 5781 5783 5785 5787 5789 5790 5792 5794 5796 5797 5798 5799 5800 5801 5802 5803 5803 5804 5804 5804 5805 5805 5806 5806 5807 5807 5808 5808 5808 5808 5809 5808 5808 5808 5808
5757 5759 5760 5762 5765 5767 5768 5769 5770 5772 5774 5776 5778 5780 5783 5784 5786 5788 5790 5791 5792 5793 5794 5795 5796 5797 5797 5798 5798 5799 5799 5800 5800 5801 5801 5802 5802 5802 5803 5803 5802 5802 5802 5802
5748 5749 5751 5752 5755 5757 5759 5760 5762 5763 5765 5768 5770 5772 5774 5776 5778 5780 5781 5783 5784 5785 5787 5788 5788 5789 5791 5791 5792 5792 5793 5794 5794 5795 5795 5796 5796 5796 5796 5796 5796 5796 5796 5795
5739 5740 5742 5744 5746 5747 5750 5751 5752 5754 5756 5759 5761 5763 5765 5767 5770 5771 5773 5774 5776 5777 5778 5779 5780 5782 5783 5784 5785 5785 5786 5787 5787 5788 5788 5789 5789 5789 5789 5789 5789 5788 5788 5788